When you browse on this site, cookies collect data to enhance your experience and personalize the content and advertising you see.
Visit our Privacy Policy to learn more. By continuing to use the site, you agree to this use of cookies and data.
  • In Hungary
  • List of Countries
  • For 7 days
  • Water Temperature
  • Satellite Maps
  • Weather Map
  • News
  • Weather Widgets
  • user-avatar
    Login

    Hourly Weather Courcelles

    Today, 17 January, Thursday

    Time Temperature Precipitation Wind Pressure Humidity
    00:00 +3°C° 0 mm 6 mps 741 mmHg 90%
    01:00 +3°C° 0.3 mm 5 mps 740 mmHg 91%
    02:00 +3°C° 0.3 mm 5 mps 740 mmHg 92%
    03:00 +4°C° 0.3 mm 4 mps 740 mmHg 93%
    04:00 +4°C° 0 mm 4 mps 740 mmHg 94%
    05:00 +2°C° 0 mm 5 mps 740 mmHg 94%
    06:00 +1°C° 0 mm 4 mps 740 mmHg 95%
    07:00 +2°C° 0.2 mm 5 mps 740 mmHg 92%
    08:00 +2°C° 0.2 mm 6 mps 740 mmHg 90%
    09:00 +2°C° 0.2 mm 7 mps 740 mmHg 88%
    10:00 +2°C° 0.4 mm 7 mps 740 mmHg 84%
    11:00 +3°C° 0.4 mm 7 mps 741 mmHg 81%
    12:00 +3°C° 0.4 mm 7 mps 742 mmHg 77%
    13:00 +2°C° 0.3 mm 7 mps 742 mmHg 76%
    14:00 +2°C° 0.3 mm 7 mps 743 mmHg 74%
    15:00 0°C° 0.3 mm 7 mps 743 mmHg 73%
    16:00 +1°C° 0.1 mm 6 mps 744 mmHg 75%
    17:00 -1°C° 0.1 mm 6 mps 745 mmHg 77%
    18:00 -1°C° 0.1 mm 6 mps 745 mmHg 79%
    19:00 0°C° 0 mm 5 mps 746 mmHg 80%
    20:00 -1°C° 0 mm 5 mps 747 mmHg 80%
    21:00 -1°C° 0 mm 4 mps 747 mmHg 81%
    22:00 -1°C° 0 mm 4 mps 748 mmHg 82%
    23:00 -1°C° 0 mm 3 mps 749 mmHg 83%

    Tomorrow, 18 January, Friday

    Time Temperature Precipitation Wind Pressure Humidity
    00:00 -1°C° 0 mm 3 mps 749 mmHg 85%
    01:00 -1°C° 0 mm 3 mps 749 mmHg 85%
    02:00 -1°C° 0 mm 2 mps 750 mmHg 85%
    03:00 -1°C° 0 mm 2 mps 750 mmHg 86%
    04:00 -1°C° 0 mm 2 mps 750 mmHg 85%
    05:00 +1°C° 0 mm 1 mps 751 mmHg 85%
    06:00 +1°C° 0 mm 1 mps 751 mmHg 84%
    07:00 +1°C° 0 mm 1 mps 751 mmHg 83%
    08:00 +2°C° 0 mm 1 mps 751 mmHg 81%
    09:00 +2°C° 0 mm 1 mps 752 mmHg 80%
    10:00 +3°C° 0 mm 1 mps 752 mmHg 75%
    11:00 +4°C° 0 mm 1 mps 752 mmHg 71%
    12:00 +5°C° 0 mm 1 mps 752 mmHg 66%
    13:00 +5°C° 0 mm 1 mps 752 mmHg 67%
    14:00 +5°C° 0 mm 1 mps 751 mmHg 69%
    15:00 +4°C° 0 mm 1 mps 751 mmHg 70%
    16:00 +4°C° 0 mm 1 mps 751 mmHg 73%
    17:00 +3°C° 0 mm 1 mps 751 mmHg 75%
    18:00 +1°C° 0 mm 2 mps 751 mmHg 77%
    19:00 -1°C° 0 mm 2 mps 751 mmHg 78%
    20:00 -1°C° 0 mm 2 mps 751 mmHg 79%
    21:00 -1°C° 0 mm 2 mps 751 mmHg 80%
    22:00 -1°C° 0 mm 2 mps 751 mmHg 79%
    23:00 -1°C° 0 mm 2 mps 751 mmHg 78%

    Day after tomorrow, 19 January, Saturday

    Time Temperature Precipitation Wind Pressure Humidity
    00:00 -1°C° 0 mm 3 mps 751 mmHg 77%
    01:00 -2°C° 0 mm 3 mps 750 mmHg 76%
    02:00 -2°C° 0 mm 3 mps 750 mmHg 76%
    03:00 -2°C° 0 mm 3 mps 750 mmHg 75%
    04:00 -2°C° 0 mm 3 mps 749 mmHg 76%
    05:00 -2°C° 0 mm 3 mps 749 mmHg 76%
    06:00 -2°C° 0 mm 3 mps 749 mmHg 76%
    07:00 -3°C° 0 mm 4 mps 749 mmHg 75%
    08:00 -3°C° 0 mm 4 mps 749 mmHg 73%
    09:00 -2°C° 0 mm 4 mps 749 mmHg 71%
    10:00 -1°C° 0 mm 4 mps 748 mmHg 66%
    11:00 0°C° 0 mm 4 mps 748 mmHg 61%
    12:00 +1°C° 0 mm 4 mps 747 mmHg 56%
    13:00 +1°C° 0 mm 4 mps 747 mmHg 58%
    14:00 +2°C° 0 mm 3 mps 747 mmHg 59%
    15:00 +2°C° 0 mm 3 mps 746 mmHg 60%
    16:00 +1°C° 0 mm 3 mps 746 mmHg 64%
    17:00 0°C° 0 mm 3 mps 746 mmHg 67%
    18:00 -1°C° 0 mm 3 mps 747 mmHg 70%
    19:00 -2°C° 0 mm 3 mps 747 mmHg 71%
    20:00 -2°C° 0 mm 3 mps 747 mmHg 71%
    21:00 -2°C° 0 mm 3 mps 747 mmHg 71%
    22:00 -2°C° 0 mm 3 mps 747 mmHg 71%
    23:00 -2°C° 0 mm 3 mps 747 mmHg 72%

    20 January, Sunday

    Time Temperature Precipitation Wind Pressure Humidity
    00:00 -2°C° 0 mm 2 mps 747 mmHg 72%
    01:00 -3°C° 0 mm 2 mps 747 mmHg 72%
    02:00 -3°C° 0 mm 2 mps 747 mmHg 72%
    03:00 -3°C° 0 mm 2 mps 747 mmHg 71%
    04:00 -3°C° 0 mm 2 mps 747 mmHg 71%
    05:00 -3°C° 0 mm 2 mps 747 mmHg 71%
    06:00 -3°C° 0 mm 2 mps 748 mmHg 70%
    07:00 -3°C° 0 mm 2 mps 748 mmHg 68%
    08:00 0°C° 0 mm 1 mps 749 mmHg 66%
    09:00 0°C° 0 mm 1 mps 749 mmHg 64%
    10:00 +1°C° 0 mm 1 mps 749 mmHg 59%
    11:00 +2°C° 0 mm 1 mps 749 mmHg 55%
    12:00 +4°C° 0 mm 1 mps 750 mmHg 50%
    13:00 +3°C° 0 mm 1 mps 750 mmHg 53%
    14:00 +3°C° 0 mm 1 mps 750 mmHg 56%
    15:00 +3°C° 0 mm 1 mps 750 mmHg 58%
    16:00 +2°C° 0 mm 1 mps 751 mmHg 61%
    17:00 +1°C° 0 mm 1 mps 751 mmHg 64%
    18:00 0°C° 0 mm 1 mps 752 mmHg 67%
    19:00 -2°C° 0 mm 0 mps 752 mmHg 66%
    20:00 -2°C° 0 mm 0 mps 753 mmHg 66%
    21:00 -2°C° 0 mm 0 mps 753 mmHg 66%
    22:00 -2°C° 0 mm 0 mps 753 mmHg 65%
    23:00 -2°C° 0 mm 0 mps 753 mmHg 65%

    21 January, Monday

    Time Temperature Precipitation Wind Pressure Humidity
    00:00 -1°C° 0 mm 1 mps 754 mmHg 65%
    01:00 -1°C° 0 mm 1 mps 754 mmHg 66%
    02:00 -1°C° 0 mm 1 mps 754 mmHg 67%
    03:00 -1°C° 0 mm 1 mps 754 mmHg 67%
    04:00 -1°C° 0 mm 1 mps 754 mmHg 68%
    05:00 -3°C° 0 mm 2 mps 754 mmHg 68%
    06:00 -2°C° 0 mm 2 mps 754 mmHg 69%
    07:00 -2°C° 0.1 mm 2 mps 754 mmHg 75%
    08:00 -1°C° 0.1 mm 2 mps 754 mmHg 82%
    09:00 +1°C° 0.1 mm 2 mps 754 mmHg 88%
    10:00 +1°C° 0 mm 3 mps 754 mmHg 80%
    11:00 +2°C° 0 mm 3 mps 754 mmHg 72%
    12:00 +3°C° 0 mm 4 mps 754 mmHg 64%
    13:00 +3°C° 0 mm 3 mps 754 mmHg 67%
    14:00 +3°C° 0 mm 3 mps 753 mmHg 71%
    15:00 +2°C° 0 mm 3 mps 753 mmHg 74%
    16:00 +2°C° 0 mm 2 mps 753 mmHg 79%
    17:00 +1°C° 0 mm 2 mps 753 mmHg 84%
    18:00 -1°C° 0 mm 2 mps 753 mmHg 89%
    19:00 -1°C° 0 mm 2 mps 752 mmHg 90%
    20:00 -1°C° 0 mm 2 mps 752 mmHg 91%
    21:00 -2°C° 0 mm 2 mps 751 mmHg 92%
    22:00 -2°C° 0 mm 2 mps 751 mmHg 93%
    23:00 -2°C° 0 mm 3 mps 750 mmHg 93%

    22 January, Tuesday

    Time Temperature Precipitation Wind Pressure Humidity
    00:00 -2°C° 0 mm 3 mps 749 mmHg 93%
    01:00 -2°C° 0 mm 3 mps 748 mmHg 93%
    02:00 -3°C° 0 mm 4 mps 747 mmHg 92%
    03:00 -3°C° 0 mm 4 mps 746 mmHg 92%
    04:00 -2°C° 0 mm 5 mps 745 mmHg 90%
    05:00 -2°C° 0 mm 5 mps 744 mmHg 88%
    06:00 -1°C° 0 mm 5 mps 743 mmHg 86%
    07:00 -2°C° 0 mm 6 mps 742 mmHg 83%
    08:00 -2°C° 0 mm 6 mps 741 mmHg 81%
    09:00 -1°C° 0 mm 7 mps 740 mmHg 79%
    10:00 -1°C° 0.1 mm 7 mps 740 mmHg 76%
    11:00 -1°C° 0.1 mm 7 mps 739 mmHg 73%
    12:00 0°C° 0.1 mm 7 mps 738 mmHg 70%
    13:00 +1°C° 0.2 mm 6 mps 738 mmHg 72%
    14:00 +1°C° 0.2 mm 5 mps 737 mmHg 73%
    15:00 0°C° 0.2 mm 4 mps 737 mmHg 74%
    16:00 0°C° 0.4 mm 4 mps 737 mmHg 76%
    17:00 -1°C° 0.4 mm 4 mps 737 mmHg 77%
    18:00 -1°C° 0.4 mm 4 mps 737 mmHg 79%
    19:00 -2°C° 0.2 mm 4 mps 737 mmHg 79%
    20:00 -2°C° 0.2 mm 4 mps 737 mmHg 79%
    21:00 -2°C° 0.2 mm 4 mps 737 mmHg 80%
    22:00 -2°C° 0 mm 4 mps 737 mmHg 80%
    23:00 -3°C° 0 mm 4 mps 737 mmHg 80%
    Show more